This is the latest recevied weather packets stored in our database for station/object KD7MPG-3. If no packets are shown the sender has not sent any weather packets the latest 10 day(s).
| Time | Temp. | Humidity | Pressure | Rain* | Wind** | Luminosity | Snow |
|---|---|---|---|---|---|---|---|
| 1778103611 | 21.67° C | 69% | 1028.8 hPa | 0 mm | - | - | - |
| 1778103309 | 21.67° C | 69% | 1028.8 hPa | 0 mm | - | - | - |
| 1778103011 | 21.67° C | 71% | 1028.7 hPa | 0 mm | - | - | - |
| 1778102709 | 21.67° C | 69% | 1028.7 hPa | 0 mm | - | - | - |
| 1778102407 | 21.67° C | 69% | 1028.9 hPa | 0 mm | - | - | - |
| 1778102106 | 21.11° C | 72% | 1028.8 hPa | 0 mm | - | - | - |
| 1778101805 | 20.56° C | 74% | 1028.8 hPa | 0 mm | - | - | - |
| 1778101505 | 20° C | 76% | 1028.9 hPa | 0 mm | - | - | - |
| 1778101206 | 20° C | 73% | 1028.9 hPa | 0 mm | - | - | - |
| 1778100904 | 20° C | 74% | 1029.1 hPa | 0 mm | - | - | - |
| 1778100601 | 20° C | 74% | 1029.1 hPa | 0 mm | - | - | - |
| 1778100302 | 19.44° C | 76% | 1029.1 hPa | 0 mm | - | - | - |
| 1778099997 | 19.44° C | 75% | 1029.2 hPa | 0 mm | - | - | - |
| 1778099697 | 19.44° C | 74% | 1029.2 hPa | 0 mm | - | - | - |
| 1778099396 | 20° C | 73% | 1029.3 hPa | 0 mm | - | - | - |
| 1778099096 | 20.56° C | 73% | 1029.3 hPa | 0 mm | - | - | - |
| 1778098795 | 20.56° C | 71% | 1029.2 hPa | 0 mm | - | - | - |
| 1778098496 | 21.11° C | 73% | 1029.2 hPa | 0 mm | - | - | - |
| 1778098190 | 20.56° C | 74% | 1029.2 hPa | 0 mm | - | - | - |
| 1778097889 | 20.56° C | 73% | 1029.4 hPa | 0 mm | - | - | - |
| 1778097589 | 20.56° C | 73% | 1029.4 hPa | 0 mm | - | - | - |
| 1778097289 | 21.11° C | 72% | 1029.3 hPa | 0 mm | - | - | - |
| 1778096989 | 21.11° C | 73% | 1029.4 hPa | 0 mm | - | - | - |
| 1778096690 | 21.11° C | 74% | 1029.5 hPa | 0 mm | - | - | - |
| 1778096385 | 20.56° C | 75% | 1029.4 hPa | 0 mm | - | - | - |
* Rain latest hour (hover to see other rain measurements)
** Current wind speed in m/s (hover to see current wind gust speed)